sat.trackr.live / text

‹ back to catalog

TIBA-1

NORAD 44800 · 2019-080A

PAYLOAD ACTIVE UNKNOWN

§ Identity

Operator
Country
EGYP
Launch date
2019-11-26
Launch site
FRGUI
Launch vehicle
Mass (kg)
RCS (m²)

Purposes: comms

External: N2YO · Heavens-Above · Gunter

§ Orbital elements

Epoch: 2026-09-19T20:33:38.167200Z

Period
1,436.10 min
Inclination
0.0557°
Eccentricity
0.0002175
Mean motion
1.00271548 rev/d
Perigee alt
35,777.5 km
Apogee alt
35,795.8 km
Semi-major
42,164.8 km
B*
0.0000e+0
RAAN
355.2607°
Arg perigee
179.4151°
Mean anomaly
167.9746°
Rev number
2,499

§ Raw data

TIBA-11 44800U 19080A   26262.85669175  .00000152  00000+0  00000+0 0  99952 44800   0.0557 355.2607 0002175 179.4151 167.9746  1.00271548 24998

JSON: /api/v1/satellites/44800 · /tle

For live sub-satellite position, see the globe view (requires WebGL).

§ Visibility from observer

Set your observer location to see the next 7 days of passes ≥ 10°. The values pass through the URL so the page stays shareable.

No JS? Fill the form by hand. The geolocation button needs JavaScript.